Location: Caltech
(34.1382°N, 118.1253°W)
Time: 02:27:41
(UTC-07:00)

Cosmos 1408 Rocket - Visible Passes

Search period start: 24 October 2017 00:00
Search period end: 03 November 2017 00:00
Orbit: 601 x 631 km, 82.6° (Epoch: 23 October)

Date Brightness Start Highest point End Pass type
(mag) Time Alt. Az. Time Alt. Az. Time Alt. Az.
24 Oct 6.5 05:34:55 10° SE 05:37:53 18° E 05:40:51 10° NE visible
24 Oct 7.2 19:03:12 10° WNW 19:04:42 12° W 19:06:12 10° WSW visible
25 Oct 5.3 05:50:14 10° SSE 05:54:08 35° E 05:58:06 10° NNE visible
26 Oct 3.8 06:06:12 10° S 06:10:29 71° E 06:14:51 10° NNE visible
27 Oct 3.6 06:22:40 10° SSW 06:26:55 57° W 06:31:14 10° N visible
28 Oct 6.4 05:03:03 10° SE 05:05:57 18° E 05:08:51 10° NE visible
28 Oct 4.4 06:39:40 10° SW 06:43:27 29° WNW 06:47:17 10° NNW visible
28 Oct 7.0 18:31:04 10° WNW 18:32:47 12° W 18:34:30 10° WSW visible
29 Oct 5.3 05:18:18 10° SSE 05:22:12 33° E 05:26:08 10° NNE visible
30 Oct 3.8 05:34:15 10° S 05:38:32 68° E 05:42:54 10° NNE visible
31 Oct 3.5 05:50:41 10° SSW 05:54:58 60° W 05:59:19 10° N visible
01 Nov 6.3 04:31:11 10° SE 04:34:00 17° E 04:36:50 10° NE visible
01 Nov 4.3 06:07:39 10° SW 06:11:29 30° WNW 06:15:23 10° NNW visible
02 Nov 5.2 04:46:23 10° SSE 04:50:15 32° E 04:54:10 10° NNE visible
02 Nov 5.0 06:25:20 10° WSW 06:28:06 16° WNW 06:30:53 10° NW visible
